Tracking 21992 objects as of 26-Nov-2020
HD Live streaming from Space Station
objects crossing your sky now

SHIYAN 6 02 (SY-6 02)

Track SHIYAN 6 02 (SY-6 02) now!
10-day predictions


NORAD ID: 45859
Int'l Code: 2020-043A
Perigee: 663.8 km
Apogee: 676.3 km
Inclination: 98.2 °
Period: 98.0 minutes
Semi major axis: 7041 km
RCS: Unknown
Launch date: July 4, 2020
Source: People's Republic of China (PRC)
Launch site: Jiuquan Satellite Launch Center, China (JSC)
aabbcc
Your satellite tracking list
Your tracking list is empty




NASA's NSSDC Master Catalog

Two Line Element Set (TLE):
1 45859U 20043A   20330.88627349 +.00000063 +00000-0 +19226-4 0  9998
2 45859 098.2061 336.4778 0008858 171.9221 188.2128 14.69431619021028
Source of the keplerian elements: AFSPC